Dauntless Aviation
Airports North America United States Hawaii
PHNG
NGF

KANEOHE BAY MCAF AIRPORT

KANEOHE, HI, USA

Airport Info
Suggest Updated Information for this Airport

Location

Latitude / Longitude: 21°27'1"N / 157°46'4"W
  21°27.0272'N / 157°46.08'W
  21.4505 / -157.7680
Elevation: 24 ft. (estimated)
Variation: 11E (1985)
From city: 02 miles SW of KANEOHE, HI

Operations

Facility use: Private
Sectional chart: HAWAIIAN ISLANDS
Control tower: yes
Boundary ARTCC: HONOLULU CONTROL FACILITY
FSS: HONOLULU [1-800-WX-BRIEF]
NOTAMs facility: PHNG (NOTAM-D service available)
Segmented circle: no
Lights: DUSK-DAWN
Beacon: SPLIT-CLEAR-GREEN (LIGHTED MILITARY AIRPORT)

Communications

CTAF: 120.700

Nearby radio navigation aids

VOR radial/distance VOR name Freq Var
CKH 342oT/11.7 KOKO HEAD VORTAC 113.90 11E
HNL 47oT/12.5 HONOLULU VORTAC 114.80 11E
MKK 299oT/38.5 MOLOKAI VORTAC 116.10 11E
 
NDB name Hdg/Dist Freq Var ID
WHEELER 96oT/14.9 373 11E HHI
EWABE 64oT/17.4 242 11E HN

Services

Bottled oxygen: HIGH/LOW
Bulk oxygen: HIGH/LOW

Runway Information

Runway 04/22

Dimensions: 7771 x 200 ft.
Surface: ASPHALT OR BITUMINOUS CONCRETE,NO SPECIAL SURFACE TREATMENT
Edge lights: HIGH
 
Runway 04
Runway 22
Latitude: 21-26-37.7330N 21-27-25.5318N
Longitude: 157-46-36.8436W 157-45-32.3425W
Elevation: 13.3 ft. 23.9 ft.
Visual slope indicator: 6-BOX VASI ON LEFT SIDE OF RUNWAY (3.00 degrees glide path) 6-BOX VASI ON LEFT SIDE OF RUNWAY (3.00 degrees glide path)
Approach lights: SIMPLIFIED SHORT APPROACH LIGHTING SYSTEM WITH RUWNAY ALIGNMENT INDICATOR LIGHTS SIMPLIFIED SHORT APPROACH LIGHTING SYSTEM WITH RUWNAY ALIGNMENT INDICATOR LIGHTS
Runway end identifier lights: yes yes
 

Additional Remarks

  • SINGLE POINT REFUELING AND NITROGEN ARE AVBL.
  • 27' WINDSOCK 178' LEFT OF CNTRLN RWY 04 /RIGHT OF RWY 22/ LOWERED TO 9' ON REQUEST.
  • BIRD HAZ ON RYS.
  • KANEOHE TOWER AND APCH CONTROL FREQS. REQUEST ALL ACFT CONTACT KANEOHE TOWER PRIOR TO TRANSITING CONTROL ZONE.
  • (A17) EXPECT DAILY CHANGE TO FLD OPER HRS MON-FRI; CLSD SAT SUN & HOL.
  • (A70) SPECTROMATIC OIL ANALYSIS PROGRAM (SOAP) IS AVBL AT NAVAL STATION PEARL HARBOR 0700-1530 MON-FRI; OTHER TIMES BY PRIOR ARRANGEMENTS.
  • (E114) J5 (NATO CODE F-44) FUEL AVBL.
  • (E60-04) E28(B) (1680').
  • RSTD: PPR FOR ALL TRAN ACFT. PPR WILL BE ISSUED ONLY DUR PUBLISHED OPR HRS; DSN 457-2121/2122. IF NO DSN DRCT ACCESS, CTC DSN OR COML. OPR FOR ACCESS, C808-257-2121/2122. NOTIFY BASE OPS, OR AFTER HRS SQUADRON DUTY OFFICER C808-216-5119, IF DELAYED OVER 30 MIN BYD PPR OR MSN CANCELED.
  • LMTD APCH BY NON-TENANT ACFT HR RSTD AND ONLY OPER CONTIGENT UPON TENANT ACFT ACTIVITY HR OF DAY, ETC.
  • SERVICE-LGT: RY 04 OLS; WAVE-OFF.
  • CSTMS/AG/IMG - PHON 3 HRS PRIOR TO ARR TO UPDATE CREW AND PAX STATUS. FAILURE TO COMPLY WILL DELAY PASSENGER DEBARKATION.
  • REQ FM NON-TENANT ACFT TO CONDUCT APCH SHOULD BE MADE TO MCAS KANEOHE BAY OPERNS EXT 257-3149/73603.
  • CAT D AFLD.
  • TRANS ALERT MAINT AVBL ON REQ.
  • CTN-HVY JET TFC INCL STU TRNG. CONVL ACFT ENTER TFC PAT 1000' JET BREAK AT 1500', 1000' DOWNWIND.
  • REQ VFR FLT TRANSITING CTA CTC TWR FOR TFC.
  • T-33 PROH FM FULL-STOP OR TOUCH AND GO LNDGS DUE PORTABLE AIR/GRND CABLE DAMAGE TO WHEEL WELL DOORS.

Instrument Procedures

No published instrument procedures available
Topographic chart at:
Satellite photo at:
Airport distance calculator
From:
Weather Reports

METAR

PHNG

PHNG 250957Z 15013G22KT 3SM RA BKN017 BKN022 OVC034 26/26 A2990 RMK AO2 TSE02B03B19E34 SLP120 P0003 T02610256 402670244 $
PHNL
12.4nm SW
PHNL 250953Z 14019G27KT 5SM -TSRA BR FEW010 SCT023 BKN035CB 25/24 A2993 RMK AO2 PK WND 15027/0952 RAE25B53 TSB03E36B49 SLP136 OCNL LTGCC VC E TS VC E MOV N P0009 T02500244 402720233
PHHI
15.9nm W
PHHI 250940Z AUTO 17006G16KT 10SM -RA BKN002 OVC007 24/24 A2994 RMK AO2 RAE05DZB05E06RAB06 TSE00 CIG 002V007
PHJR
18.5nm SW
PHJR 250953Z AUTO 16019KT 10SM FEW017 BKN023 OVC036 27/24 A2994 RMK AO2 RAE44 SLP146 P0009 T02670239 402940239 TSNO

TAF

PHNG
TAF PHNG 2509/2609 VRB15G25KT 1600 TSRA BKN010CB BKN015 OVC020 QNH2982INS TEMPO 2509/2513 15015KT 4800 SHRA BKN010 BKN015 FM251300 13008KT 9999 SCT010 BKN030 QNH2982INS TEMPO 2513/2515 6000 SHRA BKN010 BKN030 T25/2511Z T28/2523Z
PHNL
12.4nm SW
PHNL 250906Z 2509/2612 13012KT 4SM SHRA VCTS SCT015 BKN025CB TEMPO 2509/2511 VRB13G21KT 3SM TSRA BR BKN015CB FM251100 13010KT P6SM VCSH SCT025 BKN035 FM252000 13012KT P6SM SCT025 BKN045 FM260600 09009KT P6SM FEW030 SCT045
PHHI
15.9nm W
TAF AMD PHHI 250948Z 2509/2613 16010G16KT 2800 +SHRA VCTS OVC002CB QNH2988INS TEMPO 2509/2512 1600 +TSRA OVC002CB BECMG 2605/2606 10006KT 9999 NSW SCT025 QNH2996INS BECMG 2612/2613 08006KT 9999 BKN025 QNH2990INS TX30/2522Z TN27/2514Z
PHJR
18.5nm SW
PHJR 250817Z 2508/2606 14013KT 5SM SHRA VCTS SCT015 BKN025CB TEMPO 2508/2510 VRB18G27KT 3SM -TSRA BR OVC012CB FM251200 13009KT P6SM VCSH SCT025 BKN040
Safelog

 

Dauntless Aviation

© 2007-2016 Dauntless Aviation, all rights reserved
Information provided via PilotNav comes from a variety of official and unofficial data sources. As errors are possible, do not use PilotNav for primary flight planning purposes. Verify any information that you receive via PilotNav with current and canonical charts and other official documents. The material in this database is subject to database copyrights held by Dauntless Aviation and may not be copied without the express permission of Dauntless Aviation - licenses for use of part of all of this data are available for purchase; enquire via the Dauntless Aviation helpdesk. A number of mechanisms and markers exist in the database to protect against and identify infringement / copyright. Automated queries against this website are stictly prohibited, and all activity is logged and analyzed.